{"data":{"norad_id":65629,"epoch":"2026-09-20T02:14:07.444608Z","epoch_age_seconds":147025,"freshness":"FRESH","line1":"1 65629U 25210H   26263.09314172  .00013888  00000+0  42140-3 0  9995","line2":"2 65629  53.1565 119.9478 0001050  93.1725 266.9398 15.34400123 57555","mean_motion":15.34400123,"eccentricity":0.000105,"inclination_deg":53.1565,"raan_deg":119.9478,"arg_perigee_deg":93.1725,"mean_anomaly_deg":266.9398,"bstar":0.0004214,"rev_number":5755,"period_min":93.847750558346,"perigee_km":461.98458643837,"apogee_km":463.42116281204,"semimajor_km":6840.8398746252,"source":"CELESTRAK","updated_at":"2026-09-21T09:00:35.673818Z"}}